Погода в Хатте

Объединённые Арабские Эмираты     24°48′01″N   56°06′59″E
темп.,
°C
ветер,
м/с
пор.,
м/с
влажн.,
%
обл.,
%
осадки,
мм/ч
давл.,
гПа
погр.,
м
23 января, сб
сб2301:00+13в34850 0.0 101848
04:00+12в44810 0.0 101865
07:00+10вюв45700 0.0 102077
10:00+17вюв79410 0.0 1022593
13:00+21вюв66260 0.0 1020907
16:00+20вюв66270 0.0 1019718
19:00+13в44440 0.0 102055
22:00+12вюв44480 0.0 102046
24 января, вс
вс2401:00+12в44460 0.0 101934
04:00+11вюв34470 0.0 101826
07:00+10вюв23460 0.0 102022
10:00+18всв01240 0.0 1021544
13:00+22зсз32160 0.0 10191087
16:00+22зсз43170 0.0 1017806
19:00+15сз34440 0.0 101925
22:00+12с12470 0.0 101923
25 января, пн
пн2501:00+11с11430 0.0 101923
04:00+10с11570 0.0 101823
07:00+9св11770 0.0 101923
10:00+19св22280 0.0 1020484
13:00+25с33190 0.0 10191242
16:00+24ссз55260 0.0 10171075
19:00+16ссз235867 0.0 101823
22:00+12сз116733 0.0 101923
26 января, вт
вт2601:00+11зсз11734 0.0 101823
04:00+10зюз11874 0.0 101823
07:00+9юз11910 0.0 101823
10:00+18зсз33500 0.0 1020643
13:00+22зсз54320 0.0 10181161
16:00+23сз44250 0.0 10161309
19:00+15ссз23550 0.0 101723
22:00+12с11780 0.0 101823
27 января, ср
ср2701:00+11всв11810 0.0 101723
04:00+10св11790 0.0 101623
07:00+9всв12750 0.0 101823
10:00+21всв34170 0.0 1019611
13:00+25всв54130 0.0 10171288
16:00+24всв54190 0.0 1016906
19:00+15в23450 0.0 101623
22:00+13в23590 0.0 101723